TimeCDT,TemperatureF,Dew PointF,Humidity,Sea Level PressureIn,VisibilityMPH,Wind Direction,Wind SpeedMPH,Gust SpeedMPH,PrecipitationIn,Events,Conditions,WindDirDegrees,DateUTC
12:15 AM,43.2,35.6,75,30.05,10.0,South,8.1,-,N/A,,Clear,180,2012-10-09 05:15:00
12:35 AM,43.2,35.8,75,30.04,10.0,South,8.1,-,N/A,,Clear,180,2012-10-09 05:35:00
12:55 AM,42.4,35.8,77,30.04,10.0,South,5.8,-,N/A,,Clear,180,2012-10-09 05:55:00
1:15 AM,41.0,35.6,81,30.04,10.0,South,4.6,-,N/A,,Clear,190,2012-10-09 06:15:00
1:35 AM,42.8,35.6,76,30.04,10.0,South,4.6,-,N/A,,Clear,190,2012-10-09 06:35:00
2:15 AM,42.8,36.5,78,30.04,10.0,South,6.9,-,N/A,,Clear,180,2012-10-09 07:15:00
2:35 AM,42.8,37.4,81,30.03,10.0,South,8.1,-,N/A,,Clear,180,2012-10-09 07:35:00
2:55 AM,41.9,36.1,80,30.03,10.0,South,9.2,-,N/A,,Clear,180,2012-10-09 07:55:00
3:15 AM,41.9,36.3,81,30.03,10.0,South,9.2,-,N/A,,Clear,180,2012-10-09 08:15:00
3:35 AM,41.4,36.1,82,30.02,10.0,South,9.2,-,N/A,,Clear,180,2012-10-09 08:35:00
3:55 AM,41.5,36.5,82,30.02,10.0,South,6.9,-,N/A,,Clear,190,2012-10-09 08:55:00
4:15 AM,42.1,36.7,81,30.02,10.0,South,8.1,-,N/A,,Clear,190,2012-10-09 09:15:00
4:35 AM,42.4,36.9,81,30.02,10.0,South,8.1,-,N/A,,Clear,190,2012-10-09 09:35:00
4:55 AM,42.1,36.7,81,30.02,10.0,South,8.1,-,N/A,,Clear,180,2012-10-09 09:55:00
5:15 AM,41.9,36.7,82,30.02,10.0,South,8.1,-,N/A,,Clear,180,2012-10-09 10:15:00
5:35 AM,41.4,36.9,84,30.02,10.0,South,6.9,-,N/A,,Clear,190,2012-10-09 10:35:00
5:55 AM,41.2,36.7,84,30.02,10.0,South,9.2,-,N/A,,Clear,180,2012-10-09 10:55:00
6:15 AM,41.0,36.9,85,30.02,10.0,South,8.1,-,N/A,,Clear,180,2012-10-09 11:15:00
6:35 AM,41.0,37.4,87,30.02,10.0,South,6.9,-,N/A,,Clear,190,2012-10-09 11:35:00
6:55 AM,41.2,37.0,85,30.02,10.0,South,6.9,-,N/A,,Clear,170,2012-10-09 11:55:00
7:15 AM,40.8,37.2,87,30.03,10.0,South,10.4,-,N/A,,Clear,180,2012-10-09 12:15:00
7:35 AM,41.2,37.4,86,30.02,10.0,South,11.5,-,N/A,,Clear,180,2012-10-09 12:35:00
7:55 AM,42.8,38.3,84,30.02,10.0,South,11.5,-,N/A,,Clear,180,2012-10-09 12:55:00
8:15 AM,45.5,39.6,80,30.02,10.0,South,9.2,-,N/A,,Clear,190,2012-10-09 13:15:00
8:35 AM,46.9,40.3,78,30.02,10.0,South,8.1,-,N/A,,Clear,190,2012-10-09 13:35:00
8:55 AM,49.1,41.2,74,30.02,10.0,SSW,10.4,16.1,N/A,,Clear,200,2012-10-09 13:55:00
9:15 AM,51.1,41.9,71,30.01,10.0,South,9.2,-,N/A,,Clear,190,2012-10-09 14:15:00
9:35 AM,52.9,42.4,68,30.01,10.0,South,8.1,16.1,N/A,,Clear,190,2012-10-09 14:35:00
9:55 AM,54.9,42.8,64,30.00,10.0,South,9.2,-,N/A,,Clear,190,2012-10-09 14:55:00
10:15 AM,56.8,42.8,59,30.00,10.0,South,10.4,-,N/A,,Clear,190,2012-10-09 15:15:00
10:35 AM,58.5,43.3,57,30.00,10.0,SSW,9.2,16.1,N/A,,Clear,200,2012-10-09 15:35:00
10:55 AM,59.5,42.8,54,29.99,10.0,South,12.7,18.4,N/A,,Clear,190,2012-10-09 15:55:00
11:15 AM,61.9,42.8,50,29.99,10.0,SSW,10.4,17.3,N/A,,Clear,200,2012-10-09 16:15:00
11:35 AM,63.0,42.4,47,29.98,10.0,South,11.5,18.4,N/A,,Clear,190,2012-10-09 16:35:00
11:55 AM,63.7,41.7,45,29.97,10.0,SSW,10.4,17.3,N/A,,Clear,200,2012-10-09 16:55:00
12:15 PM,64.6,41.7,43,29.96,10.0,SSW,13.8,18.4,N/A,,Clear,210,2012-10-09 17:15:00
12:35 PM,65.3,41.2,41,29.95,10.0,SW,10.4,18.4,N/A,,Clear,220,2012-10-09 17:35:00
12:55 PM,65.5,40.3,40,29.94,10.0,SSW,10.4,20.7,N/A,,Clear,200,2012-10-09 17:55:00
1:15 PM,66.0,39.7,38,29.93,10.0,SSW,12.7,20.7,N/A,,Clear,210,2012-10-09 18:15:00
1:35 PM,65.7,40.3,39,29.92,10.0,South,11.5,19.6,N/A,,Clear,190,2012-10-09 18:35:00
1:55 PM,66.6,40.6,39,29.91,10.0,SSW,12.7,17.3,N/A,,Clear,210,2012-10-09 18:55:00
2:15 PM,67.1,41.0,39,29.90,10.0,SSW,10.4,19.6,N/A,,Clear,200,2012-10-09 19:15:00
2:35 PM,66.2,40.3,39,29.89,10.0,SSW,9.2,19.6,N/A,,Clear,210,2012-10-09 19:35:00
2:55 PM,66.9,40.3,38,29.90,10.0,SW,13.8,20.7,N/A,,Clear,220,2012-10-09 19:55:00
3:15 PM,68.2,40.1,36,29.89,10.0,SW,9.2,20.7,N/A,,Clear,230,2012-10-09 20:15:00
3:35 PM,68.0,40.3,36,29.89,10.0,SSW,8.1,17.3,N/A,,Clear,200,2012-10-09 20:35:00
3:55 PM,66.4,40.1,38,29.89,10.0,SW,4.6,17.3,N/A,,Clear,220,2012-10-09 20:55:00
4:15 PM,65.7,39.9,39,29.89,10.0,SSW,9.2,20.7,N/A,,Clear,200,2012-10-09 21:15:00
4:35 PM,66.6,40.5,38,29.89,10.0,SSW,8.1,18.4,N/A,,Clear,210,2012-10-09 21:35:00
4:55 PM,66.4,39.9,38,29.88,10.0,SSW,6.9,-,N/A,,Clear,210,2012-10-09 21:55:00
5:15 PM,64.9,40.8,41,29.88,10.0,SSW,6.9,-,N/A,,Clear,210,2012-10-09 22:15:00
5:35 PM,64.6,41.4,43,29.88,10.0,SSW,6.9,-,N/A,,Clear,210,2012-10-09 22:35:00
5:55 PM,64.4,41.9,44,29.88,10.0,SSW,10.4,-,N/A,,Clear,210,2012-10-09 22:55:00
6:15 PM,63.5,42.3,46,29.88,10.0,SSW,5.8,-,N/A,,Scattered Clouds,210,2012-10-09 23:15:00
6:35 PM,62.6,42.6,48,29.88,10.0,SSW,3.5,-,N/A,,Scattered Clouds,200,2012-10-09 23:35:00
6:55 PM,61.2,43.2,52,29.88,10.0,South,3.5,-,N/A,,Mostly Cloudy,190,2012-10-09 23:55:00
7:15 PM,60.8,43.9,54,29.87,10.0,South,4.6,-,N/A,,Overcast,190,2012-10-10 00:15:00
7:35 PM,59.2,44.1,57,29.87,10.0,SSW,4.6,-,N/A,,Mostly Cloudy,200,2012-10-10 00:35:00
7:55 PM,59.9,44.2,56,29.88,10.0,SSW,4.6,-,N/A,,Overcast,210,2012-10-10 00:55:00
8:15 PM,59.9,44.2,56,29.88,10.0,SSW,4.6,-,N/A,,Overcast,200,2012-10-10 01:15:00
8:35 PM,60.3,43.9,55,29.88,10.0,SSW,6.9,-,N/A,,Overcast,200,2012-10-10 01:35:00
8:55 PM,55.4,42.8,63,29.93,10.0,NNW,15.0,23.0,N/A,,Overcast,340,2012-10-10 01:55:00
9:15 PM,53.6,41.5,64,29.95,10.0,NNW,10.4,17.3,N/A,,Overcast,330,2012-10-10 02:15:00
9:35 PM,51.3,41.9,70,29.96,10.0,NW,9.2,16.1,N/A,,Overcast,320,2012-10-10 02:35:00
9:55 PM,50.9,41.7,71,29.96,10.0,NW,5.8,-,N/A,,Overcast,320,2012-10-10 02:55:00
10:15 PM,49.5,42.6,77,29.97,10.0,NW,10.4,16.1,N/A,Rain,Light Rain,320,2012-10-10 03:15:00
10:35 PM,48.0,44.1,86,29.99,10.0,NW,9.2,-,N/A,,Light Drizzle,320,2012-10-10 03:35:00
10:55 PM,47.1,44.6,91,30.00,7.0,NW,6.9,-,N/A,Rain,Rain,320,2012-10-10 03:55:00
11:15 PM,46.4,44.4,93,29.99,7.0,NW,6.9,-,N/A,Rain,Rain,320,2012-10-10 04:15:00
11:35 PM,46.0,43.7,92,30.01,7.0,NW,5.8,-,N/A,Rain,Light Rain,320,2012-10-10 04:35:00
11:55 PM,45.7,43.0,90,30.01,10.0,NW,6.9,-,N/A,,Drizzle,320,2012-10-10 04:55:00